Location: Tamazert
(32.6352°N, 5.2072°W)
Time: 07:09:29
(UTC+00:00)

Tiros 1 despin weight - Pass Details

Date: 13 October 2022
Orbit: 590 x 637 km, 48.2° (Epoch: 28 November)

Event Time Altitude Azimuth Distance (km) Brightness Sun altitude
Rises 17:44:28 0° 315° (NW) 2,856 ? 0.4°
Reaches altitude 10° 17:46:54 10° 324° (NW) 1,959 ? -0.1°
Maximum altitude 17:51:05 37° 32° (NNE) 961 ? -1.0°
Drops below altitude 10° 17:55:19 10° 100° (E) 1,982 ? -1.8°
Sets 17:57:47 0° 109° (ESE) 2,895 ? -2.4°
